{"data":{"norad_id":59132,"intl_designator":"2024-043AL","name":"LIZZIESAT-1 (LS-1)","alt_names":[],"object_type":"PAYLOAD","status":"ACTIVE","operator":null,"country":"US","launch_date":"2024-03-04","launch_site_code":"AFWTR","launch_vehicle":null,"mission":null,"orbit_class":"UNKNOWN","rcs_meters":null,"size_class":null,"mass_kg":null,"dimensions":null,"purposes":[],"wikipedia_slug":null,"has_3d_model":false,"image_url":null,"decayed_at":null,"tle_current":{"epoch":"2026-05-25T02:28:28.372224Z","epoch_age_seconds":76616,"freshness":"FRESH","line1":"1 59132U 24043AL  26145.10310616  .00003129  00000+0  11980-3 0  9995","line2":"2 59132  97.5603 280.6001 0009935 333.9492  26.1245 15.27291363123418","mean_motion":15.27291363,"eccentricity":0.0009935,"inclination_deg":97.5603,"raan_deg":280.6001,"arg_perigee_deg":333.9492,"mean_anomaly_deg":26.1245,"bstar":0.0001198,"rev_number":12341,"period_min":94.284563828834,"perigee_km":477.09606797924,"apogee_km":490.73096235287,"semimajor_km":6862.0505151661,"source":"CELESTRAK","updated_at":"2026-05-25T13:38:01.197091Z"}}}